Tracking 25744 objects as of 24-Jun-2022
HD Live streaming from Space Station
objects crossing your sky now

INTELSAT 4-F7

Track INTELSAT 4-F7 now!
INTELSAT 4-F7 is classified as:


NORAD ID: 6796
Int'l Code: 1973-058A
Perigee: 36,075.3 km
Apogee: 36,150.0 km
Inclination: 10.6 °
Period: 1,452.4 minutes
Semi major axis: 42483 km
RCS: 1.5964 m2 (large)
Launch date: August 23, 1973
Source: International Telecommunications Satellite Organization (ITSO)
Launch site: AIR FORCE EASTERN TEST RANGE (AFETR)
aabbcc
Your satellite tracking list
Your tracking list is empty




NASA's NSSDC Master Catalog

Two Line Element Set (TLE):
1 06796U 73058A   22175.59278208  .00000042  00000-0  00000-0 0  9995
2 06796  10.5634 310.2019 0008798 157.5441  56.4320  0.99144925121236
Source of the keplerian elements: AFSPC